VXP675 KHVN-KRDU

Flight info

Callsign VXP675
Flight time N/A
Altitude 38000
Route BEADS EMJAY Q167 ZJAAY TAQLE3
Aircraft B737/M-SDE2E3FGHIRWXY/LB1

Departure

Time 2026-05-06 18:31
Airport Tweed New Haven Airport (KHVN)

Arrival

Time N/A
Airport Raleigh-Durham International Airport (KRDU)
Time Latitude Longitude Altitude Speed Heading
2026-05-06 17:29 41.26884 -72.89040 27 ft 0 kts 310°
2026-05-06 18:15 41.26882 -72.89037 26 ft 2 kts 310°
2026-05-06 18:15 41.26874 -72.89022 26 ft 2 kts 307°
2026-05-06 18:16 41.26865 -72.89008 26 ft 2 kts 308°
2026-05-06 18:16 41.26857 -72.88994 26 ft 2 kts 308°
2026-05-06 18:16 41.26849 -72.88979 26 ft 2 kts 308°
2026-05-06 18:16 41.26841 -72.88966 26 ft 1 kts 307°
2026-05-06 18:17 41.26833 -72.88959 26 ft 1 kts 20°
2026-05-06 18:17 41.26827 -72.88966 26 ft 1 kts 45°
2026-05-06 18:17 41.26825 -72.88969 26 ft 0 kts 41°
2026-05-06 18:20 41.26825 -72.88968 26 ft 0 kts 41°
2026-05-06 18:20 41.26833 -72.88959 26 ft 2 kts 41°
2026-05-06 18:20 41.26845 -72.88945 26 ft 1 kts 40°
2026-05-06 18:20 41.26856 -72.88932 26 ft 0 kts 39°
2026-05-06 18:21 41.26859 -72.88930 26 ft 0 kts 38°
2026-05-06 18:21 41.26862 -72.88926 26 ft 1 kts 38°
2026-05-06 18:21 41.26875 -72.88915 26 ft 2 kts 23°
2026-05-06 18:21 41.26903 -72.88909 26 ft 7 kts
2026-05-06 18:22 41.26948 -72.88902 26 ft 7 kts 15°
2026-05-06 18:22 41.26971 -72.88858 26 ft 6 kts 84°
2026-05-06 18:22 41.26969 -72.88801 26 ft 6 kts 95°
2026-05-06 18:22 41.26965 -72.88745 26 ft 6 kts 93°
2026-05-06 18:23 41.26963 -72.88683 26 ft 8 kts 91°
2026-05-06 18:23 41.26960 -72.88616 25 ft 6 kts 104°
2026-05-06 18:23 41.26929 -72.88591 26 ft 7 kts 179°
2026-05-06 18:23 41.26848 -72.88596 26 ft 17 kts 184°
2026-05-06 18:24 41.26740 -72.88602 26 ft 16 kts 184°
2026-05-06 18:24 41.26636 -72.88609 26 ft 16 kts 181°
2026-05-06 18:24 41.26554 -72.88599 26 ft 11 kts 149°
2026-05-06 18:24 41.26501 -72.88526 26 ft 11 kts 131°
2026-05-06 18:25 41.26448 -72.88459 26 ft 7 kts 162°
2026-05-06 18:25 41.26406 -72.88481 26 ft 8 kts 214°
2026-05-06 18:25 41.26350 -72.88538 27 ft 13 kts 217°
2026-05-06 18:25 41.26279 -72.88602 27 ft 13 kts 205°
2026-05-06 18:26 41.26201 -72.88624 27 ft 12 kts 190°
2026-05-06 18:26 41.26120 -72.88644 27 ft 14 kts 191°
2026-05-06 18:26 41.26011 -72.88668 27 ft 17 kts 189°
2026-05-06 18:26 41.25901 -72.88694 28 ft 17 kts 191°
2026-05-06 18:27 41.25794 -72.88711 28 ft 16 kts 183°
2026-05-06 18:27 41.25692 -72.88718 28 ft 12 kts 183°
2026-05-06 18:27 41.25635 -72.88724 29 ft 5 kts 196°
2026-05-06 18:27 41.25619 -72.88739 29 ft 0 kts 225°
2026-05-06 18:28 41.25618 -72.88739 29 ft 0 kts 225°
2026-05-06 18:28 41.25613 -72.88747 29 ft 4 kts 236°
2026-05-06 18:28 41.25615 -72.88805 29 ft 7 kts 302°
2026-05-06 18:29 41.25642 -72.88822 29 ft 0 kts 359°
2026-05-06 18:30 41.25647 -72.88822 29 ft 3 kts
2026-05-06 18:30 41.25714 -72.88818 28 ft 32 kts
2026-05-06 18:30 41.26173 -72.88789 27 ft 113 kts
2026-05-06 18:31 41.27079 -72.88728 89 ft 172 kts
2026-05-06 18:31 41.28169 -72.88635 768 ft 183 kts
2026-05-06 18:31 41.29258 -72.88503 1574 ft 182 kts
2026-05-06 18:31 41.30403 -72.88406 1993 ft 201 kts 356°
2026-05-06 18:32 41.31741 -72.88378 2019 ft 243 kts 357°
2026-05-06 18:32 41.33346 -72.88326 1965 ft 271 kts 359°
2026-05-06 18:32 41.35094 -72.88219 2070 ft 290 kts
2026-05-06 18:32 41.36877 -72.87978 3000 ft 291 kts 10°
2026-05-06 18:33 41.38531 -72.87019 3818 ft 299 kts 36°
2026-05-06 18:33 41.39887 -72.85351 4563 ft 304 kts 48°
2026-05-06 18:33 41.41075 -72.83421 5359 ft 308 kts 56°
2026-05-06 18:33 41.42255 -72.81379 6064 ft 316 kts 46°
2026-05-06 18:34 41.43797 -72.79675 6660 ft 321 kts 32°
2026-05-06 18:34 41.45370 -72.78044 6884 ft 327 kts 45°
2026-05-06 18:34 41.46537 -72.75806 6928 ft 320 kts 69°
2026-05-06 18:34 41.47005 -72.73261 6939 ft 311 kts 94°
2026-05-06 18:35 41.46716 -72.70754 6939 ft 295 kts 121°
2026-05-06 18:35 41.45674 -72.68848 6946 ft 265 kts 152°
2026-05-06 18:35 41.44206 -72.67982 6953 ft 250 kts 176°
2026-05-06 18:35 41.42702 -72.67766 6947 ft 244 kts 185°
2026-05-06 18:36 41.41219 -72.67783 6939 ft 241 kts 189°
2026-05-06 18:36 41.39776 -72.67980 6939 ft 239 kts 194°
2026-05-06 18:36 41.38382 -72.68374 6947 ft 236 kts 201°
2026-05-06 18:36 41.36972 -72.69047 7458 ft 245 kts 205°
2026-05-06 18:37 41.35606 -72.69775 7905 ft 246 kts 206°
2026-05-06 18:37 41.34299 -72.70476 7944 ft 238 kts 206°
2026-05-06 18:37 41.32922 -72.71079 7949 ft 240 kts 198°
2026-05-06 18:37 41.31397 -72.71361 7948 ft 245 kts 189°
2026-05-06 18:38 41.29870 -72.71367 8021 ft 260 kts 184°
2026-05-06 18:38 41.28267 -72.71093 8983 ft 260 kts 178°
2026-05-06 18:38 41.26708 -72.70670 9740 ft 261 kts 175°
2026-05-06 18:38 41.25120 -72.70189 9926 ft 266 kts 175°
2026-05-06 18:39 41.23562 -72.69689 9935 ft 260 kts 175°
2026-05-06 18:39 41.22015 -72.69197 9933 ft 261 kts 174°
2026-05-06 18:39 41.20385 -72.68681 10001 ft 281 kts 172°
2026-05-06 18:40 41.17266 -72.65662 11161 ft 333 kts 134°
2026-05-06 18:40 41.16081 -72.63152 11957 ft 342 kts 128°
2026-05-06 18:40 41.15026 -72.60647 12666 ft 348 kts 127°
2026-05-06 18:40 41.14017 -72.58183 13420 ft 352 kts 127°
2026-05-06 18:41 41.12954 -72.55580 14046 ft 360 kts 127°
2026-05-06 18:41 41.11880 -72.52969 14766 ft 364 kts 126°
2026-05-06 18:41 41.10773 -72.50314 15380 ft 370 kts 126°
2026-05-06 18:41 41.09619 -72.47585 15994 ft 375 kts 126°
2026-05-06 18:42 41.08466 -72.44887 16604 ft 379 kts 126°
2026-05-06 18:42 41.07270 -72.42122 17164 ft 384 kts 127°
2026-05-06 18:42 41.06079 -72.39381 17786 ft 387 kts 127°
2026-05-06 18:42 41.04882 -72.36648 18338 ft 391 kts 127°
2026-05-06 18:43 41.03630 -72.33809 18835 ft 398 kts 127°
2026-05-06 18:43 41.02376 -72.30978 19465 ft 399 kts 127°
2026-05-06 18:43 41.01105 -72.28111 19972 ft 403 kts 127°
2026-05-06 18:43 40.99821 -72.25223 20550 ft 405 kts 127°
2026-05-06 18:44 40.98526 -72.22310 20981 ft 411 kts 127°
2026-05-06 18:44 40.97250 -72.19451 21470 ft 414 kts 127°
2026-05-06 18:44 40.95932 -72.16502 21792 ft 423 kts 127°
2026-05-06 18:44 40.94602 -72.13551 22138 ft 430 kts 127°
2026-05-06 18:45 40.93229 -72.10513 22584 ft 433 kts 127°
2026-05-06 18:45 40.91760 -72.07606 23070 ft 430 kts 134°
2026-05-06 18:45 40.89983 -72.04988 23456 ft 427 kts 144°
2026-05-06 18:45 40.87928 -72.02807 23940 ft 421 kts 153°
2026-05-06 18:46 40.85629 -72.01081 24311 ft 417 kts 163°
2026-05-06 18:46 40.83197 -71.99921 24893 ft 406 kts 173°
2026-05-06 18:46 40.80686 -71.99306 25317 ft 400 kts 183°
2026-05-06 18:46 40.78247 -71.99255 25608 ft 396 kts 192°
2026-05-06 18:47 40.75871 -71.99757 26051 ft 389 kts 202°
2026-05-06 18:47 40.73640 -72.00772 26570 ft 380 kts 211°
2026-05-06 18:47 40.71679 -72.02184 26924 ft 376 kts 220°
2026-05-06 18:47 40.69907 -72.04068 27441 ft 369 kts 229°
2026-05-06 18:48 40.68376 -72.06400 27799 ft 368 kts 238°
2026-05-06 18:48 40.67266 -72.08915 28190 ft 366 kts 248°
2026-05-06 18:48 40.66512 -72.11704 28653 ft 364 kts 256°
2026-05-06 18:48 40.66087 -72.14580 29008 ft 367 kts 262°
2026-05-06 18:49 40.65797 -72.17601 29237 ft 373 kts 263°
2026-05-06 18:49 40.65545 -72.20712 29483 ft 378 kts 264°
2026-05-06 18:49 40.65304 -72.23815 29802 ft 381 kts 264°
2026-05-06 18:49 40.65063 -72.26959 30227 ft 382 kts 265°
2026-05-06 18:50 40.64832 -72.29974 30634 ft 382 kts 264°
2026-05-06 18:50 40.64592 -72.33012 31188 ft 379 kts 263°
2026-05-06 18:50 40.64178 -72.36042 31780 ft 375 kts 258°
2026-05-06 18:50 40.63530 -72.38988 32118 ft 378 kts 254°
2026-05-06 18:51 40.62685 -72.41908 32227 ft 386 kts 250°
2026-05-06 18:51 40.60456 -72.47620 32708 ft 396 kts 244°
2026-05-06 18:51 40.59096 -72.50384 33227 ft 394 kts 241°
2026-05-06 18:52 40.57650 -72.53038 33815 ft 391 kts 240°
2026-05-06 18:52 40.56196 -72.55537 34335 ft 388 kts 239°
2026-05-06 18:52 40.54684 -72.58022 34865 ft 385 kts 238°
2026-05-06 18:52 40.53120 -72.60510 35397 ft 382 kts 238°
2026-05-06 18:53 40.51566 -72.62935 35841 ft 380 kts 238°
2026-05-06 18:53 40.50002 -72.65350 36044 ft 384 kts 237°
2026-05-06 18:53 40.48453 -72.67722 36179 ft 388 kts 238°
2026-05-06 18:54 40.45347 -72.72440 36662 ft 391 kts 237°
2026-05-06 18:54 40.43825 -72.74725 37165 ft 387 kts 238°
2026-05-06 18:54 40.42278 -72.77048 37356 ft 390 kts 238°
2026-05-06 18:54 40.40714 -72.79400 37566 ft 391 kts 238°
2026-05-06 18:55 40.39103 -72.81817 37845 ft 391 kts 237°
2026-05-06 18:55 40.35964 -72.86513 37884 ft 389 kts 238°
2026-05-06 18:56 40.32824 -72.91213 37883 ft 389 kts 237°
2026-05-06 18:56 40.29694 -72.95874 37881 ft 384 kts 238°
2026-05-06 18:57 40.26559 -73.00542 37889 ft 385 kts 237°
2026-05-06 18:57 40.23381 -73.05271 37891 ft 384 kts 238°
2026-05-06 18:58 40.20243 -73.09937 37885 ft 382 kts 238°
2026-05-06 18:58 40.16975 -73.14790 37869 ft 383 kts 238°
2026-05-06 18:59 40.13769 -73.19563 37885 ft 381 kts 239°